Monterey, CA

10:19 PM PDT on October 21, 2017 (GMT -0700)
Monterey Peninsula

Weather History for KMRY - October, 2013

Change the Weather History Date:

Friday, October 4, 2013

  Actual Average Record
Temperature  
Mean Temperature 65 °F 60 °F  
Max Temperature 80 °F 68 °F 88 °F (2014)
Min Temperature 49 °F 51 °F 46 °F (2005)
Degree Days  
Heating Degree Days 0    
Month to date heating degree days 26  
Since 1 July heating degree days 275  
Cooling Degree Days 0    
Month to date cooling degree days 0  
Year to date cooling degree days 35  
Growing Degree Days 15 (Base 50)    
Moisture  
Dew Point 32 °F    
Average Humidity 37    
Maximum Humidity 59    
Minimum Humidity 15    
Precipitation  
Precipitation 0.00 in - 0.10 in (2008)
Month to date precipitation 0.00  
Year to date precipitation 3.28  
Since 1 July precipitation 0.13  
Sea Level Pressure  
Sea Level Pressure 30.05 in    
Wind  
Wind Speed 7 mph (ENE)    
Max Wind Speed 13 mph    
Max Gust Speed 15 mph    
Visibility 10 miles    
Events      
T = Trace of Precipitation, MM = Missing Value Source: NWS Daily Summary

Daily Weather History Graph

Daily Weather History Graph

Search for Another Location

Airport or City:

Trip Planner

Search our weather history database for the weather conditions in past years. The results will help you decide how hot, cold, wet, or windy it might be!

Date:

Astronomy

Oct. 04, 2013 Rise Set
Actual Time 7:05 AM PDT 6:45 PM PDT
Civil Twilight 6:39 AM PDT 7:11 PM PDT
Nautical Twilight 6:09 AM PDT 7:41 PM PDT
Astronomical Twilight 5:39 AM PDT 8:11 PM PDT
Moon 6:46 AM PDT (10/4) 6:32 PM PDT (10/4)
Length of Visible Light 12h 32m
Length of Day
11h 40m
Waning Crescent, 0% of the Moon is Illuminated
Oct 4
Waning Crescent
Oct 4
New
Oct 11
First Quarter
Oct 18
Full
Oct 26
Last Quarter

Hourly Weather History & Observations

Time (PDT) Temp. Dew Point Humidity Pressure Visibility Wind Dir Wind Speed Gust Speed Precip Events Conditions
12:54 AM 51.1 °F 37.9 °F 61% 30.00 in 10.0 mi Calm Calm - N/A   Clear
1:54 AM 52.0 °F 35.1 °F 53% 30.01 in 10.0 mi East 4.6 mph - N/A   Clear
2:54 AM 50.0 °F 36.0 °F 59% 30.01 in 10.0 mi ESE 3.5 mph - N/A   Clear
3:54 AM 50.0 °F 33.1 °F 52% 30.00 in 10.0 mi East 3.5 mph - N/A   Clear
4:54 AM 51.1 °F 30.0 °F 44% 30.01 in 10.0 mi East 6.9 mph - N/A   Clear
5:54 AM 54.0 °F 28.9 °F 38% 30.02 in 10.0 mi East 9.2 mph - N/A   Clear
6:54 AM 53.1 °F 28.9 °F 40% 30.04 in 10.0 mi East 10.4 mph - N/A   Clear
7:54 AM 55.9 °F 28.9 °F 36% 30.05 in 10.0 mi East 10.4 mph - N/A   Clear
8:54 AM 64.0 °F 30.9 °F 29% 30.07 in 10.0 mi East 5.8 mph - N/A   Clear
9:54 AM 68.0 °F 28.9 °F 23% 30.08 in 10.0 mi NNE 11.5 mph - N/A   Clear
10:54 AM 71.1 °F 30.0 °F 22% 30.07 in 10.0 mi North 9.2 mph - N/A   Clear
11:54 AM 75.9 °F 28.0 °F 17% 30.06 in 10.0 mi Variable 5.8 mph - N/A   Clear
12:54 PM 80.1 °F 28.0 °F 15% 30.05 in 10.0 mi NNW 8.1 mph - N/A   Clear
1:54 PM 73.9 °F 37.0 °F 26% 30.04 in 10.0 mi West 9.2 mph - N/A   Clear
2:54 PM 75.0 °F 34.0 °F 22% 30.04 in 10.0 mi WNW 6.9 mph - N/A   Clear
3:54 PM 75.9 °F 35.1 °F 23% 30.04 in 10.0 mi NW 4.6 mph - N/A   Clear
4:54 PM 75.0 °F 35.1 °F 23% 30.04 in 10.0 mi NW 5.8 mph - N/A   Clear
5:54 PM 75.0 °F 30.9 °F 20% 30.05 in 10.0 mi SW 4.6 mph - N/A   Clear
6:54 PM 71.1 °F 35.1 °F 27% 30.07 in 10.0 mi Calm Calm - N/A   Clear
7:54 PM 64.9 °F 32.0 °F 29% 30.08 in 10.0 mi East 4.6 mph - N/A   Clear
8:54 PM 61.0 °F 32.0 °F 34% 30.09 in 10.0 mi East 5.8 mph - N/A   Clear
9:54 PM 60.1 °F 32.0 °F 35% 30.10 in 10.0 mi East 5.8 mph - N/A   Clear
10:54 PM 61.0 °F 32.0 °F 34% 30.11 in 10.0 mi East 8.1 mph - N/A   Clear
11:54 PM 61.0 °F 32.0 °F 34% 30.12 in 10.0 mi East 8.1 mph - N/A   Clear